This is the latest recevied weather packets stored in our database for station/object W8RSN-13. If no packets are shown the sender has not sent any weather packets the latest 10 day(s).
| Time | Temp. | Humidity | Pressure | Rain* | Wind** | Luminosity | Snow |
|---|---|---|---|---|---|---|---|
| 1787412202 | 27.22° C | 45% | 1017.7 hPa | - | - | - | - |
| 1787411903 | 27.22° C | 47% | 1017.6 hPa | - | - | - | - |
| 1787411601 | 26.67° C | 48% | 1017.5 hPa | - | - | - | - |
| 1787411300 | 26.67° C | 48% | 1017.7 hPa | - | - | - | - |
| 1787410999 | 27.22° C | 48% | 1017.5 hPa | - | - | - | - |
| 1787410698 | 26.67° C | 48% | 1017.5 hPa | - | - | - | - |
| 1787410397 | 26.67° C | 48% | 1017.5 hPa | - | - | - | - |
| 1787410096 | 26.11° C | 50% | 1017.2 hPa | - | - | - | - |
| 1787409815 | 26.11° C | 50% | 1017.3 hPa | - | - | - | - |
| 1787409514 | 25.56° C | 49% | 1017.4 hPa | - | - | - | - |
| 1787409214 | 25° C | 51% | 1017.4 hPa | - | - | - | - |
| 1787408913 | 23.89° C | 52% | 1017.3 hPa | - | - | - | - |
| 1787408612 | 23.33° C | 55% | 1017.2 hPa | - | - | - | - |
| 1787408311 | 23.33° C | 54% | 1017.2 hPa | - | - | - | - |
| 1787408010 | 22.78° C | 55% | 1017.3 hPa | - | - | - | - |
| 1787407709 | 22.22° C | 56% | 1017.1 hPa | - | - | - | - |
| 1787407408 | 22.22° C | 57% | 1017.2 hPa | - | - | - | - |
| 1787407107 | 22.22° C | 57% | 1017 hPa | - | - | - | - |
| 1787406806 | 21.67° C | 57% | 1017.1 hPa | - | - | - | - |
| 1787406505 | 22.22° C | 57% | 1017.1 hPa | - | - | - | - |
| 1787406205 | 22.22° C | 56% | 1017 hPa | - | - | - | - |
| 1787405904 | 22.22° C | 57% | 1017.2 hPa | - | - | - | - |
| 1787405603 | 21.67° C | 58% | 1016.8 hPa | - | - | - | - |
| 1787405302 | 21.67° C | 59% | 1016.9 hPa | - | - | - | - |
| 1787405001 | 21.67° C | 59% | 1016.9 hPa | - | - | - | - |
* Rain since midnight (hover to see other rain measurements)
** Current wind speed in m/s (hover to see current wind gust speed)